Regional Weather Roundup
Issued by NWS Wakefield, VA

Home | Current Version | Previous Version | Graphics & Text | Print | Product List | Glossary On
Versions: 1 2 3 4 5 6 7 8 9 10 11 12 13 14 15 16 17 18 19 20 21 22 23 24 25 26 27 28 29 30 31 32 33 34 35 36 37 38 39 40 41 42 43 44 45 46 47 48 49 50
113
ASUS41 KAKQ 251115
RWRAKQ

REGIONAL WEATHER ROUNDUP
NATIONAL WEATHER SERVICE WAKEFIELD VA
700 AM EDT TUE APR 25 2017

Note: "fair" indicates few or no clouds below 12,000 feet with no
significant weather and/or obstructions to visibility. * = Denotes
station may not report precipitation (e.g., rain,snow,etc.),
thunder or fog.

VAZ042-051-052>054-056-251200-
NORTHERN VIRGINIA

CITY           SKY/WX    TMP DP  RH WIND       PRES   REMARKS
WASH NATIONAL  DRIZZLE   56  55  97 NE13      29.88R FOG
DULLES         CLOUDY    53  52  96 NE8       29.89R FOG
FORT BELVOIR   LGT RAIN  55  54  94 N6        29.87R
QUANTICO       CLOUDY    57  56  96 NE18      29.86S
FREDERICKSBRG* CLOUDY    55  55 100 N9G20     29.82S
STAFFORD*      CLOUDY    53  53 100 N8        29.88S FOG
WARRENTON      CLOUDY    53  50  89 N10       29.86R FOG
CULPEPER*      CLOUDY    54  53  97 N12       29.87R FOG
MANASSAS*        N/A     54  53  97 NE9       29.88S FOG
LEESBURG*      CLOUDY    52  50  93 NE13      29.92R
WINCHESTER     CLOUDY    46  45  93 N5        29.91R
FRONT ROYAL*   CLOUDY    48  48 100 N5        29.90R
LURAY*         DRIZZLE   50  50 100 N12G17    29.88R
$$

VAZ048-049-060>072-079>083-251200-
CENTRAL AND SOUTH CENTRAL VIRGINIA

CITY           SKY/WX    TMP DP  RH WIND       PRES   REMARKS
RICHMOND       LGT RAIN  58  58 100 NE16G23   29.72F FOG
CHESTERFIELD*  CLOUDY    59  43  55 N10       29.73F
PETERSBURG*    LGT RAIN  58  57  97 N13G20    29.69F
HANOVER        LGT RAIN  57  56  96 VRB7      29.77F FOG
TAPPAHANNOCK*  RAIN      58  58 100 NE14G20   29.78F
QUINTON*       CLOUDY    58  58 100 NE6G21    29.72S FOG
CHARLOTTSVILLE CLOUDY    53  52  96 NE13      29.83R FOG
GORDONSVILLE*  CLOUDY    52  52 100 NE9G18    29.82R FOG
ORANGE*        CLOUDY    52  52 100 NE14      29.83S FOG
LOUISA*        DRIZZLE   55  55 100 N10G16    29.79S
BUMPASS*       CLOUDY    54  54 100 N7        29.79F
FARMVILLE*     LGT RAIN  55  55 100 N12G20    29.73S
CREWE*         CLOUDY    56  56 100 N5        29.71S
FORT PICKETT*  CLOUDY   N/A N/A N/A N12G18    29.69S
CHASE CITY*    CLOUDY    55  54  95 N9G16     29.68S
CLARKSVILLE*   CLOUDY    55  55 100 N9        29.66S
SOUTH HILL*    CLOUDY    57  57 100 N9        29.71S
LAWRENCEVILLE* CLOUDY    59  58  97 N6        29.64F
EMPORIA*       TSTM      59  59 100 N9G18     29.63F
$$

VAZ088>098-251200-
SOUTHEAST VIRGINIA

CITY           SKY/WX    TMP DP  RH WIND       PRES   REMARKS
NORFOLK        LGT RAIN  62  60  93 NE18G36   29.62F
VIRGINIA BEACH LGT RAIN  60  58  92 E22G32    29.60F FOG
NORFOLK NAVAL  LGT RAIN  61  59  93 E21G31    29.64F FOG
WEST POINT*    CLOUDY    60  59  96 NE13G21   29.73F
SALUDA*        CLOUDY    59  59 100 NE14G24   29.73F
NEWPORT NEWS   CLOUDY    62  60  93 E18G35    29.67F
LANGLEY AFB    CLOUDY    62  62 100 E23G33    29.65F
FORT EUSTIS    DRIZZLE   63  61  94 E17G26    29.64F FOG
WILLIAMSBURG*  MOCLDY    63  63 100 CALM      29.69F
HR EXEC AP*    CLOUDY    64  59  82 NE13G23   29.59F
FRANKLIN*      RAIN      61  60  96 NE16G22   29.60F
US460-WAKEFLD  LGT RAIN  61  61 100 NE9G22    29.65F FOG
$$

VAZ020-022-025-037-045-251200-
WEST CENTRAL AND SOUTHWEST VIRGINIA

CITY           SKY/WX    TMP DP  RH WIND       PRES   REMARKS
STAUNTON*      DRIZZLE   47  47  98 N12       29.87R
WAYNESBORO*    CLOUDY    47  47 100 N9        29.84R
HOT SPRINGS VA HVY SNOW  39  37  93 E14G22    29.81R VSB<1/4
LYNCHBURG      LGT RAIN  53  52  96 NE15G25   29.76R FOG
DANVILLE       LGT RAIN  54  54 100 NE13G23   29.68R
SOUTH BOSTON*  CLOUDY    54  53  95 N10G17    29.68S
MARTINSVILLE   LGT RAIN  53  51  94 NE9       29.73R
ROANOKE        LGT RAIN  51  50  96 NE15G21   29.78R
BLACKSBURG     DRIZZLE   51  49  95 NE9       29.79R
DUBLIN*        LGT RAIN  53  49  89 NE6       29.77R
MARION*        CLOUDY    52  51  95 CALM      29.79R FOG
HILLSVILLE*    LGT RAIN  49  49 100 CALM      29.74R VSB 3/4
RICHLANDS*     CLOUDY    50  50 100 CALM      29.77R FOG
WISE*          CLOUDY    50  50 100 N6        29.80R
ABINGDON*      CLOUDY    55  53  92 E7        29.75S
$$

MDZ021>025-VAZ099-100-251200-
SOUTHERN MARYLAND AND THE DELMARVA PENINSULA

CITY           SKY/WX    TMP DP  RH WIND       PRES   REMARKS
PATUXENT RIVER CLOUDY    56  56 100 NE15      29.82S
BAY BRIDGE APT CLOUDY    55  54  94 E12G23    29.89R FOG
LEONARDTOWN    CLOUDY    55  54  94 NE7       29.84S
DOVER          CLOUDY    55  55 100 NE13      29.90F
GEORGETOWN     CLOUDY    56  54  93 MISG      29.89R
EASTON         CLOUDY    57  55  94 E13G21    29.92R FOG
CAMBRIDGE      CLOUDY    57  55  94 NE8G16    29.85F
SALISBURY      CLOUDY    56  56 100 NE12      29.84R
OCEAN CITY     CLOUDY    57  54  89 E15       29.85R
WALLOPS ISLAND LGT RAIN  59  59 100 E22G33    29.81S FOG
ACCOMACK*      RAIN      61  60  96 E18G30    29.75F
$$

NCZ012>017-030>032-251200-
NORTH CENTRAL AND EASTERN NORTH CAROLINA

CITY           SKY/WX    TMP DP  RH WIND       PRES   REMARKS
ROANOKE RAPIDS RAIN      59  59 100 N9        29.60F
RALEIGH        RAIN      59  57  93 N9        29.62R FOG
ELIZABETH CITY LGT RAIN  65  64  97 E20G31    29.55S FOG
AHOSKIE*       HVY RAIN  60  60  98 N12       29.54F
EDENTON*       RAIN      67  63  87 SW33G41   29.49S
CURRITUCK*     LGT RAIN  63  63 100 NE12G22   29.57F
KILL DEVIL HLS CLOUDY    65  65 100 SW7       29.55R
MANTEO         CLOUDY    65  61  85 SW15      29.56R
CAPE HATTERAS  CLOUDY    68  61  78 SW10      29.59R HAZE
TARBORO*       NOT AVBL
GOLDSBORO      CLOUDY    61  61 100 CALM      29.56S
WASHINGTON     LGT RAIN  60  60  98 W5        29.53F
GREENVILLE     RAIN      61  61 100 CALM      29.60F
NEW BERN       CLOUDY    62  62 100 W7        29.58R
WILMINGTON     CLOUDY    63  63 100 NW3       29.58R FOG
$$

VAZ048-251200-
ELSEWHERE

CITY           SKY/WX    TMP DP  RH WIND       PRES   REMARKS
HARRISBURG PA  CLOUDY    52  48  86 VRB6      29.97S
BALTIMORE      DRIZZLE   54  54 100 NE17      29.91R FOG
ANNAPOLIS      CLOUDY    57  55  93 N8        29.90R FOG
ANDREWS AFB    CLOUDY    54  54 100 NE15G23   29.86R FOG
PHILADELPHIA   CLOUDY    53  50  89 NE16G25   30.00R
HENDERSON NC   HVY RAIN  55  54  97 NE10G16   29.65R
GREENSBORO     LGT RAIN  53  53 100 N7        29.67R
ROCKY MOUNT    RAIN      60  60 100 NW8       29.59F FOG
$$

VAZ100-251200-
MARINE

STATION/POSITION TIME  TEMP    WIND        PRES    WAVE   SWELL
                       AIR SEA DIR/SP/G            HT/PER HT/PER
                 (UTC) (F)     (DEG/KT/KT) (MB)    (FT/S) (FT/S)
CAPE MAY NJ      1048   53 55   60/  6/ 14 1012.0R
LEWES DE         1048   54 54   80/ 18/ 24 1011.9R
15NM E FENWICK I 1050   56 51   60/ 19/ 21 1010.8F   6/ 8   3/ 8
WACHAPREAGUE VA  1048   58 57   40/ 20/ 25 1006.8F
THOMAS POINT MD  1100   55 56   50/ 15/ 16   N/A
GOOSES REEF MD   1100   57 53   60/ 16/ 17 1011.4    3/ 3
COVE POINT MD    1048   56      70/ 16/ 18 1010.9R
SOLOMONS ISLAND  1048   56 60   40/ 12/ 15   N/A
BISHOPS HEAD MD  1048   57 58   40/ 12/ 17 1009.7F
PINEY POINT MD   1048           70/ 10/ 13   N/A
POTOMAC MD       1100   57 60   50/ 17/ 23 1008.4    1/ 3
LEWISETTA VA     1048   58 61   60/ 14/ 22 1008.5F
RAPPAHANNOCK LGT 1048           60/ 29/ 33 1006.9F
STINGRAY PT      1100   59 61   70/ 21/ 25 1007.5    3/ 3
YORK RVR RNG VA  1048   62      70/ 26/ 32 1004.3F
YORKTOWN VA      1048   62 62   60/ 27/ 31 1004.3F
JAMESTOWN VA     1100   62 67   50/ 12/ 23   N/A     0
DOMINION TERM VA 1048   62      30/  3/  9 1003.6F
KIPTOPEKE VA     1048      60   70/ 18/ 24   N/A
CHES BAY BRIDGE  1048   60 61   60/ 31/ 36 1002.8F
CAPE HENRY VA    1048   60      60/ 32/ 36   N/A
WILLOUBY STN VA  1048   62      70/ 28/ 33 1004.2F
S CRANEY ISL VA  1048   61      80/ 24/ 26 1002.8F
CAPE HENRY BUOY  1042      55                N/A     8/ 9   2/11
1ST LANDING BUOY 1100   60 60              1003.5    5/ 4
CAPE CHARLES BUO 1051      56                N/A     8/10   2/11
64NM E OF VA BCH 1050   62 54  110/ 21/ 25 1003.5F  17/11  15/11
DUCK PIER NC     1048   64 60  110/ 34/ 40 1000.1S
44100 DUCK FRF   1035      54                N/A    16/11  10/11
44056 DUCK FRF   1030      58                N/A    12/10   7/11
OREGON INLET NC  1042   65 63  190/ 14/ 19 1000.8R
HATTERAS NC      1048   67 67  210/  8/ 12 1001.4R
DIAMOND SHLS NC  1050   73 77  200/ 17/ 21 1001.8R  13/10  10/10
CAPE LOOKOUT NC  1100   66     240/  4/  4 1001.3R
$$




USA.gov is the U.S. government's official web portal to all federal, state and local government web resources and services.